Printer-friendly version
Follow the MPC on Twitter Follow the MPC on Facebook The MPC blog
Minor Planet Center

MPEC 2006-W96 : 2006 WP127

The following Minor Planet Electronic Circular may be linked-to from your own Web pages, but must not otherwise be redistributed electronically.

A form allowing access to any MPEC is at the bottom of this page.


Read MPEC 2006-W95 Read MPEC 2006-W97


M.P.E.C. 2006-W96                                Issued 2006 Nov. 27, 12:04 UT

     The Minor Planet Electronic Circulars contain information on unusual
         minor planets and routine data on comets.  They are published
   on behalf of Commission 20 of the International Astronomical Union by the
          Minor Planet Center, Smithsonian Astrophysical Observatory,
                          Cambridge, MA 02138, U.S.A.

             Prepared using the Tamkin Foundation Computer Network

                              MPC@CFA.HARVARD.EDU
          URL http://cfa-www.harvard.edu/iau/mpc.html  ISSN 1523-6714

                                  2006 WP127

Observations:
     K06WC7P* C2006 11 25.30226 04 44 56.11 +12 03 08.5          20.5 V EW096G96
     K06WC7P  C2006 11 25.31038 04 44 55.24 +12 03 05.6          21.1 V EW096G96
     K06WC7P  C2006 11 25.31853 04 44 54.56 +12 03 02.1          21.2 V EW096G96
     K06WC7P  C2006 11 25.32682 04 44 53.62 +12 02 58.7          20.5 V EW096G96
     K06WC7P  C2006 11 25.36149 04 44 50.24 +12 02 44.3          20.9 V EW096G96
     K06WC7P  C2006 11 25.36719 04 44 49.74 +12 02 41.9          20.8 V EW096G96
     K06WC7P  C2006 11 25.37287 04 44 49.12 +12 02 39.1          20.9 V EW096G96
     K06WC7P  C2006 11 25.37856 04 44 48.58 +12 02 36.8          21.0 V EW096G96
     K06WC7P  C2006 11 26.09852 04 43 38.67 +11 57 36.4                 EW096J95
     K06WC7P  C2006 11 26.11322 04 43 37.27 +11 57 30.4          20.6 R EW096J95
     K06WC7P  C2006 11 26.37684 04 43 11.38 +11 55 43.8                 EW096291
     K06WC7P  C2006 11 26.38094 04 43 10.93 +11 55 41.7                 EW096291
     K06WC7P HC2006 11 26.38476 04 43 10.65 +11 55 39.9                 EW096291
     K06WC7P  C2006 11 27.18770 04 41 51.36 +11 50 06.3                 EW096291
     K06WC7P  C2006 11 27.19143 04 41 50.98 +11 50 04.6                 EW096291
     K06WC7P  C2006 11 27.19517 04 41 50.60 +11 50 03.1                 EW096291
     K06WC7P  C2006 11 27.29318 04 41 40.57 +11 49 22.0          20.3 V EW096G96
     K06WC7P  C2006 11 27.30013 04 41 39.87 +11 49 19.2                 EW096G96
     K06WC7P  C2006 11 27.30700 04 41 39.21 +11 49 17.0                 EW096G96
     K06WC7P  C2006 11 27.31378 04 41 38.51 +11 49 13.6          20.6 V EW096G96

Observer details:
291 LPL/Spacewatch II.  Observer T. H. Bressi.  1.8-m f/2.7 reflector + CCD.
G96 Mt. Lemmon Survey.  Observers E. C. Beshore, R. E. Hill.  Measurers
    E. C. Beshore, E. J. Christensen, G. J. Garradd, A. R. Gibbs, A. D. Grauer,
    R. E. Hill, R. A. Kowalski, S. M. Larson, R. H. McNaught.  1.5-m reflector
    + CCD.
J95 Great Shefford.  Observer P. Birtwhistle.  0.40-m f/6.0 Schmidt-Cassegrain
    + CCD.

Orbital elements:
2006 WP127                                               Earth MOID = 0.0906 AU
Epoch 2006 Sept. 22.0 TT = JDT 2454000.5                MPC
M 304.48464              (2000.0)            P               Q
n   0.25550139     Peri.   23.12734     -0.93264726     +0.36077103
a   2.4596532      Node   178.00933     -0.34527790     -0.88956515
e   0.7557546      Incl.    6.03962     -0.10465307     -0.28021081
P   3.86           H   18.2           G   0.15           U   9
Residuals in seconds of arc
061125 G96  0.0   0.1+    061125 G96  0.1+  0.0     061127 291  0.3-  0.1+
061125 G96  1.0-  0.6+    061126 J95  0.2-  0.4-    061127 291  0.2-  0.2+
061125 G96  0.8+  0.4+    061126 J95  0.7+  0.3-    061127 G96  0.1+  0.4-
061125 G96  0.9-  0.4+    061126 291  0.2-  0.3+    061127 G96  0.3+  0.3-
061125 G96  0.3-  0.4+    061126 291  0.7-  0.1-    061127 G96  1.0+  0.3+
061125 G96  0.6+  0.4+    061126 291  0.8+  0.3-    061127 G96  0.9+  0.2-
061125 G96  0.2-  0.1-    061127 291  0.3-  0.3+

Ephemeris:
2006 WP127               a,e,i = 2.46, 0.76, 6                   q = 0.6008
Date    TT    R. A. (2000) Decl.     Delta      r     Elong.  Phase     V
2006 11 21    04 51.48   +12 32.4    1.277    2.239   162.4     7.7    21.0
2006 12 01    04 35.26   +11 23.5    1.170    2.147   169.5     4.8    20.6
2006 12 11    04 16.29   +10 14.3    1.093    2.052   161.8     8.6    20.5
2006 12 21    03 56.50   +09 12.3    1.046    1.953   148.3    15.4    20.6
2006 12 31    03 38.27   +08 26.1    1.026    1.851   134.2    22.4    20.7
2007 01 10    03 23.52   +08 01.7    1.023    1.745   120.8    29.0    20.7
2007 01 20    03 13.36   +08 01.5    1.031    1.635   108.4    34.8    20.8
2007 01 30    03 08.14   +08 24.9    1.041    1.521    97.3    40.0    20.8
2007 02 09    03 07.62   +09 08.8    1.045    1.404    87.3    44.6    20.7
2007 02 19    03 11.34   +10 10.4    1.038    1.282    78.5    49.0    20.7
2007 03 01    03 18.78   +11 26.7    1.014    1.158    70.6    53.8    20.5
2007 03 11    03 29.26   +12 55.3    0.969    1.032    63.4    59.4    20.3
2007 03 21    03 41.90   +14 35.2    0.899    0.906    56.8    67.0    20.1
2007 03 31    03 54.88   +16 26.5    0.803    0.787    50.4    77.8    19.9

Timothy B. Spahr             (C) Copyright 2006 MPC           M.P.E.C. 2006-W96

Read MPEC 2006-W95 Read MPEC 2006-W97


MPEC number:

Enter an MPEC number in one of the following forms:

  • 1997-B01 (the full form)
  • J97B01 (the packed version of the full form)
  • B01 (the abbreviated form)

Valid HTML 4.01!